When you browse on this site, cookies collect data to enhance your experience and personalize the content and advertising you see.
Visit our Privacy Policy to learn more. By continuing to use the site, you agree to this use of cookies and data.
  • In Österreich
  • Länderverzeichnis
  • Für 7 Tage
  • Wassertemperatur
  • Wetterkarte
  • News
  • Widgets
  • user-avatar
    Anmelden

    Stündliche Wetter Dobrovolskoe

    Heute, 29 Mai, Freitag

    Zeit Temperatur Niederschläge Wind Luftdruck Luftfeuchtigkeit
    00:00 +22°C° 0.1 mm 4 m/S 737 mmHg 51%
    01:00 +21°C° 0.1 mm 4 m/S 737 mmHg 53%
    02:00 +20°C° 0.1 mm 4 m/S 737 mmHg 55%
    03:00 +19°C° 0.1 mm 4 m/S 737 mmHg 57%
    04:00 +19°C° 0.1 mm 4 m/S 737 mmHg 59%
    05:00 +20°C° 0 mm 5 m/S 738 mmHg 60%
    06:00 +21°C° 0 mm 6 m/S 738 mmHg 61%
    07:00 +21°C° 0 mm 7 m/S 738 mmHg 61%
    08:00 +23°C° 0 mm 7 m/S 738 mmHg 60%
    09:00 +24°C° 0 mm 8 m/S 738 mmHg 58%
    10:00 +26°C° 0 mm 8 m/S 738 mmHg 56%
    11:00 +27°C° 0 mm 8 m/S 738 mmHg 53%
    12:00 +28°C° 0 mm 8 m/S 738 mmHg 51%
    13:00 +29°C° 0 mm 8 m/S 738 mmHg 49%
    14:00 +29°C° 0 mm 8 m/S 738 mmHg 49%
    15:00 +29°C° 0 mm 8 m/S 738 mmHg 49%
    16:00 +28°C° 0 mm 8 m/S 738 mmHg 50%
    17:00 +27°C° 0 mm 8 m/S 738 mmHg 53%
    18:00 +26°C° 0 mm 8 m/S 738 mmHg 56%
    19:00 +23°C° 0 mm 8 m/S 738 mmHg 59%
    20:00 +22°C° 0 mm 8 m/S 739 mmHg 59%
    21:00 +21°C° 0 mm 8 m/S 739 mmHg 59%
    22:00 +20°C° 0 mm 7 m/S 739 mmHg 59%
    23:00 +18°C° 0 mm 7 m/S 739 mmHg 58%

    Morgen, 30 Mai, Samstag

    Zeit Temperatur Niederschläge Wind Luftdruck Luftfeuchtigkeit
    00:00 +18°C° 0 mm 7 m/S 739 mmHg 57%
    01:00 +17°C° 0 mm 7 m/S 739 mmHg 56%
    02:00 +17°C° 0 mm 7 m/S 739 mmHg 57%
    03:00 +16°C° 0 mm 6 m/S 739 mmHg 59%
    04:00 +16°C° 0 mm 6 m/S 739 mmHg 60%
    05:00 +17°C° 0 mm 6 m/S 739 mmHg 57%
    06:00 +18°C° 0 mm 7 m/S 739 mmHg 55%
    07:00 +20°C° 0 mm 7 m/S 739 mmHg 52%
    08:00 +21°C° 0 mm 7 m/S 739 mmHg 49%
    09:00 +23°C° 0 mm 7 m/S 739 mmHg 46%
    10:00 +26°C° 0 mm 7 m/S 739 mmHg 43%
    11:00 +27°C° 0 mm 6 m/S 739 mmHg 41%
    12:00 +28°C° 0 mm 6 m/S 739 mmHg 39%
    13:00 +30°C° 0 mm 6 m/S 738 mmHg 36%
    14:00 +30°C° 0 mm 6 m/S 738 mmHg 36%
    15:00 +32°C° 0 mm 5 m/S 738 mmHg 36%
    16:00 +32°C° 0 mm 5 m/S 737 mmHg 36%
    17:00 +30°C° 0 mm 4 m/S 737 mmHg 40%
    18:00 +29°C° 0 mm 4 m/S 737 mmHg 44%
    19:00 +28°C° 0 mm 3 m/S 736 mmHg 48%
    20:00 +27°C° 0 mm 4 m/S 736 mmHg 50%
    21:00 +25°C° 0 mm 4 m/S 736 mmHg 53%
    22:00 +23°C° 0 mm 5 m/S 736 mmHg 56%
    23:00 +22°C° 0 mm 4 m/S 735 mmHg 58%

    übermorgen, 31 Mai, Sonntag

    Zeit Temperatur Niederschläge Wind Luftdruck Luftfeuchtigkeit
    00:00 +21°C° 0 mm 4 m/S 735 mmHg 60%
    01:00 +20°C° 0 mm 4 m/S 735 mmHg 62%
    02:00 +20°C° 0 mm 3 m/S 734 mmHg 64%
    03:00 +19°C° 0 mm 2 m/S 734 mmHg 66%
    04:00 +19°C° 0 mm 2 m/S 733 mmHg 68%
    05:00 +21°C° 0 mm 1 m/S 733 mmHg 64%
    06:00 +23°C° 0 mm 1 m/S 733 mmHg 60%
    07:00 +24°C° 0 mm 1 m/S 733 mmHg 55%
    08:00 +27°C° 0 mm 3 m/S 732 mmHg 48%
    09:00 +30°C° 0 mm 4 m/S 732 mmHg 41%
    10:00 +33°C° 0 mm 6 m/S 732 mmHg 33%
    11:00 +34°C° 0 mm 7 m/S 732 mmHg 34%
    12:00 +34°C° 0 mm 7 m/S 731 mmHg 34%
    13:00 +34°C° 0 mm 8 m/S 731 mmHg 35%
    14:00 +34°C° 0 mm 9 m/S 731 mmHg 37%
    15:00 +33°C° 0 mm 9 m/S 731 mmHg 40%
    16:00 +33°C° 0 mm 9 m/S 730 mmHg 42%
    17:00 +31°C° 0 mm 8 m/S 731 mmHg 46%
    18:00 +28°C° 0 mm 7 m/S 731 mmHg 50%
    19:00 +26°C° 0 mm 6 m/S 731 mmHg 54%
    20:00 +24°C° 0 mm 6 m/S 731 mmHg 58%
    21:00 +23°C° 0 mm 5 m/S 731 mmHg 62%
    22:00 +21°C° 0 mm 5 m/S 731 mmHg 66%
    23:00 +21°C° 0 mm 5 m/S 731 mmHg 68%

    1 Juni, Montag

    Zeit Temperatur Niederschläge Wind Luftdruck Luftfeuchtigkeit
    00:00 +20°C° 0 mm 6 m/S 731 mmHg 69%
    01:00 +19°C° 0 mm 6 m/S 731 mmHg 70%
    02:00 +17°C° 0 mm 6 m/S 731 mmHg 71%
    03:00 +16°C° 0 mm 6 m/S 731 mmHg 72%
    04:00 +16°C° 0 mm 6 m/S 731 mmHg 73%
    05:00 +16°C° 0 mm 6 m/S 731 mmHg 70%
    06:00 +17°C° 0 mm 7 m/S 731 mmHg 67%
    07:00 +18°C° 0 mm 8 m/S 731 mmHg 64%
    08:00 +20°C° 0 mm 8 m/S 731 mmHg 58%
    09:00 +21°C° 0 mm 9 m/S 732 mmHg 53%
    10:00 +22°C° 0 mm 9 m/S 732 mmHg 48%
    11:00 +23°C° 0 mm 9 m/S 732 mmHg 45%
    12:00 +24°C° 0 mm 9 m/S 731 mmHg 42%
    13:00 +24°C° 0 mm 10 m/S 731 mmHg 40%
    14:00 +24°C° 0 mm 10 m/S 731 mmHg 40%
    15:00 +24°C° 0 mm 10 m/S 731 mmHg 41%
    16:00 +23°C° 0 mm 10 m/S 731 mmHg 42%
    17:00 +22°C° 0 mm 9 m/S 731 mmHg 47%
    18:00 +21°C° 0 mm 8 m/S 731 mmHg 51%
    19:00 +20°C° 0 mm 7 m/S 731 mmHg 56%
    20:00 +17°C° 0 mm 6 m/S 731 mmHg 62%
    21:00 +16°C° 0 mm 5 m/S 731 mmHg 69%
    22:00 +14°C° 0 mm 5 m/S 731 mmHg 75%
    23:00 +13°C° 0 mm 4 m/S 731 mmHg 77%

    2 Juni, Dienstag

    Zeit Temperatur Niederschläge Wind Luftdruck Luftfeuchtigkeit
    00:00 +12°C° 0 mm 4 m/S 731 mmHg 78%
    01:00 +11°C° 0 mm 4 m/S 731 mmHg 80%
    02:00 +10°C° 0 mm 4 m/S 732 mmHg 82%
    03:00 +8°C° 0 mm 4 m/S 732 mmHg 83%
    04:00 +9°C° 0 mm 3 m/S 732 mmHg 85%
    05:00 +8°C° 0 mm 4 m/S 732 mmHg 79%
    06:00 +10°C° 0 mm 4 m/S 733 mmHg 72%
    07:00 +11°C° 0 mm 4 m/S 733 mmHg 66%
    08:00 +13°C° 0 mm 3 m/S 733 mmHg 60%
    09:00 +14°C° 0 mm 3 m/S 733 mmHg 53%
    10:00 +16°C° 0 mm 3 m/S 734 mmHg 47%
    11:00 +17°C° 0 mm 3 m/S 734 mmHg 43%
    12:00 +19°C° 0 mm 3 m/S 734 mmHg 39%
    13:00 +20°C° 0 mm 4 m/S 734 mmHg 35%
    14:00 +20°C° 0 mm 4 m/S 734 mmHg 34%
    15:00 +20°C° 0 mm 4 m/S 734 mmHg 33%
    16:00 +20°C° 0 mm 4 m/S 734 mmHg 32%
    17:00 +20°C° 0 mm 4 m/S 734 mmHg 37%
    18:00 +19°C° 0 mm 3 m/S 734 mmHg 41%
    19:00 +18°C° 0 mm 2 m/S 734 mmHg 45%
    20:00 +17°C° 0 mm 2 m/S 734 mmHg 48%
    21:00 +18°C° 0 mm 1 m/S 734 mmHg 50%
    22:00 +16°C° 0 mm 1 m/S 733 mmHg 53%
    23:00 +15°C° 0.1 mm 2 m/S 733 mmHg 60%

    3 Juni, Mittwoch

    Zeit Temperatur Niederschläge Wind Luftdruck Luftfeuchtigkeit
    00:00 +13°C° 0.1 mm 3 m/S 733 mmHg 68%
    01:00 +12°C° 0.1 mm 3 m/S 733 mmHg 76%
    02:00 +12°C° 0 mm 3 m/S 733 mmHg 82%
    03:00 +12°C° 0 mm 2 m/S 733 mmHg 87%
    04:00 +11°C° 0 mm 1 m/S 733 mmHg 92%
    05:00 +12°C° 0 mm 1 m/S 733 mmHg 86%
    06:00 +13°C° 0 mm 1 m/S 733 mmHg 81%
    07:00 +14°C° 0 mm 1 m/S 733 mmHg 75%
    08:00 +16°C° 0 mm 2 m/S 733 mmHg 70%
    09:00 +17°C° 0 mm 3 m/S 732 mmHg 64%
    10:00 +18°C° 0 mm 4 m/S 732 mmHg 58%
    11:00 +19°C° 0 mm 3 m/S 732 mmHg 55%
    12:00 +20°C° 0 mm 3 m/S 732 mmHg 51%
    13:00 +21°C° 0 mm 3 m/S 731 mmHg 48%
    14:00 +21°C° 0 mm 2 m/S 731 mmHg 49%
    15:00 +21°C° 0 mm 2 m/S 731 mmHg 49%
    16:00 +21°C° 0 mm 2 m/S 730 mmHg 49%
    17:00 +21°C° 0.2 mm 2 m/S 730 mmHg 53%
    18:00 +20°C° 0.2 mm 2 m/S 730 mmHg 57%
    19:00 +19°C° 0.2 mm 2 m/S 730 mmHg 60%
    20:00 +18°C° 0 mm 2 m/S 729 mmHg 66%
    21:00 +16°C° 0 mm 2 m/S 729 mmHg 71%
    22:00 +14°C° 0 mm 3 m/S 729 mmHg 77%
    23:00 +13°C° 0 mm 3 m/S 729 mmHg 80%
    Mehr zeigen